Regional Weather Roundup
Issued by NWS Albany, NY

Home | Current Version | Previous Version | Text Only | Print | Product List | Glossary On
Versions: 1 2 3 4 5 6 7 8 9 10 11 12 13 14 15 16 17 18 19 20 21 22 23 24 25 26 27 28 29 30 31 32 33 34 35 36 37 38 39 40 41 42 43 44 45 46 47 48 49 50
000
ASUS41 KALY 210310
RWRALY

NEW YORK STATE HOURLY WEATHER ROUNDUP
NATIONAL WEATHER SERVICE ALBANY NY
1000 PM EST TUE FEB 20 2018

NOTE: "FAIR" INDICATES FEW OR NO CLOUDS BELOW 12,000 FEET WITH NO
SIGNIFICANT WEATHER AND/OR NO OBSTRUCTIONS TO VISIBILITY.

NYZ032-033-038>043-046>054-057>066-NYZ062>081-082-084-210400-
EAST


CITY           SKY/WX    TMP DP  RH WIND       PRES   REMARKS
ALBANY         MOCLDY    59  49  69 S9        30.22S
GLENS FALLS    CLOUDY    39  38  96 NW3       30.21R
POUGHKEEPSIE   FAIR      46  44  93 CALM      30.28S
NEWBURGH       CLEAR     50  50 100 NW5       30.30F
MONTGOMERY     FOG       42  41  96 N3        30.28S VSB 1/4
WHITE PLAINS   FAIR      51  50  96 S3        30.31S
ISLIP          FOG       48  48 100 SW8       30.35R VSB 1/4
NEW YORK CITY  MOCLDY    56  49  77 S6        30.32R
CENTRAL PARK   FAIR      65  56  72 VRB7      30.34R
$$

NYZ005>009-017-018-044>046-055-056-210400-
CENTRAL


CITY           SKY/WX    TMP DP  RH WIND       PRES   REMARKS
FULTON         CLOUDY    52  51  97 CALM      30.12F
SYRACUSE       CLOUDY    63  54  72 S7        30.13S
ROME           CLOUDY    46  45  96 CALM      30.18S
ELMIRA         FAIR      59  52  77 W5        30.19F
BINGHAMTON     FAIR      59  51  75 S9G20     30.23S
MONTICELLO     FAIR      48  48 100 CALM      30.31S
$$

NYZ026>034-041>043-087-210400-
NORTH


CITY           SKY/WX    TMP DP  RH WIND       PRES   REMARKS
WATERTOWN      CLOUDY    61  55  81 S7        30.09F
FORT DRUM      NOT AVBL
OGDENSBURG     FOG       51  50  98 S5        30.09F VSB 1/4
MASSENA        LGT RAIN  39  39 100 E3        30.09S VSB 3/4
SARANAC LAKE   CLOUDY    52  52 100 SW6       30.14R
PLATTSBURGH    CLOUDY    42  41  96 S3        30.12R FOG
$$

NYZ001>004-010>016-019>021-085-210400-
WEST


CITY           SKY/WX    TMP DP  RH WIND       PRES   REMARKS
NIAGARA FALLS  FAIR      63  53  70 S12       30.03F
BUFFALO        CLOUDY    66  55  67 S16       30.05F
DUNKIRK        FAIR      67  54  63 S20G26    30.07S
JAMESTOWN        N/A    N/A N/A N/A MISG        N/A
WELLSVILLE     FAIR      61  53  75 S8        30.20S
ROCHESTER      CLOUDY    66  56  70 S7        30.08F
PENN YAN       CLOUDY    62  50  64 SW12      30.16S
$$

             KEY
       WCI = WIND CHILL INDEX
       VSB = VISIBILITY
       HX  = HEAT INDEX
$$



USA.gov is the U.S. government's official web portal to all federal, state and local government web resources and services.